Wind_Speed
11 12 12 12 13 12 10 8 6 5 5 4 4 3 3 2 1 1 2 3 2 2 2 2 3 4 4 5 5 5 4 4 5 4 4 4 3 3 3 3 2 2 2 2 2 2 2 1 1
11 11 11 13 13 11 9 7 6 6 6 5 4 4 3 2 2 2 3 3 2 2 3 3 3 4 4 5 5 4 4 3 4 3 3 3 3 3 3 4 3 3 2 2 2 1 1 2 1
11 10 12 13 11 9 8 7 7 7 6 6 5 5 3 3 2 2 3 3 2 2 3 3 4 4 4 4 4 4 4 3 3 2 2 2 2 2 2 3 2 2 1 1 2 2 1 1 1
11 12 12 10 8 8 7 6 6 7 6 5 5 4 4 4 3 3 3 3 2 2 2 2 3 3 3 3 4 4 3 3 2 2 2 2 1 1 1 2 2 1 1 1 1 1 1 0 1
12 13 11 8 7 8 6 5 6 6 6 5 5 5 4 4 3 4 4 3 3 2 2 2 3 3 3 4 3 4 4 3 2 2 1 1 1 1 1 1 1 2 2 2 2 1 1 0 1
12 13 10 8 8 7 6 6 5 5 5 5 6 4 5 4 4 4 4 4 4 3 3 4 4 4 4 4 4 4 3 3 2 2 1 1 1 1 1 1 1 1 1 2 2 1 1 1 1
12 12 10 7 7 6 6 6 5 5 6 6 6 5 5 6 5 5 4 5 5 4 4 5 5 5 5 4 4 4 3 2 2 3 2 2 2 2 1 2 2 2 1 2 2 2 2 1 2
11 10 8 6 6 7 5 5 5 6 6 6 6 6 6 6 5 5 4 5 5 5 5 5 5 5 5 5 5 4 3 3 2 2 2 2 3 3 2 2 2 2 1 1 2 2 2 2 2
9 10 7 5 5 5 5 5 6 7 6 6 6 6 6 6 6 6 5 5 5 5 5 4 4 5 5 5 5 4 3 3 2 2 2 3 3 4 3 3 3 2 1 1 2 2 2 2 2
9 7 4 3 4 4 5 6 6 7 7 7 7 7 6 7 7 6 5 4 4 5 5 4 4 4 4 4 4 4 4 3 3 3 3 3 4 4 4 4 4 2 1 1 2 2 2 2 2
6 5 4 3 3 3 5 6 6 6 7 7 7 7 7 7 7 5 4 4 3 4 4 3 3 3 3 4 3 3 3 4 4 4 4 4 4 4 4 4 3 3 2 2 2 2 2 3 3
5 4 3 2 3 3 4 6 6 6 6 7 7 7 7 7 7 6 5 4 5 4 4 3 3 3 3 3 3 3 3 4 4 5 5 5 5 5 4 4 3 3 2 2 2 3 3 3 3
4 3 3 2 3 4 6 7 8 7 7 7 7 7 7 7 7 7 7 5 5 4 4 3 2 2 2 2 2 3 3 4 4 5 5 5 5 5 4 4 3 3 3 3 3 3 4 4 4
4 2 2 1 1 4 5 7 8 8 8 7 7 6 6 6 7 7 7 6 6 5 4 3 2 2 2 2 2 3 3 4 4 5 5 5 6 6 5 4 5 4 4 4 4 4 5 4 5
3 2 1 1 1 3 4 4 5 8 9 8 8 8 7 7 6 6 7 7 7 6 5 4 3 3 3 2 2 3 4 5 6 6 6 6 6 6 6 5 5 5 4 5 4 4 5 5 6
1 1 2 2 2 3 5 6 7 8 8 8 8 8 8 8 7 6 6 7 7 6 6 5 5 4 3 3 3 3 5 6 7 6 6 6 7 7 6 6 6 5 5 6 5 6 6 6 6
2 1 2 3 4 2 4 6 7 9 8 7 7 8 7 8 8 8 7 7 7 6 6 6 5 5 5 4 4 4 5 6 7 7 7 7 7 7 7 7 7 7 6 6 6 6 7 7 8
4 4 4 4 5 4 6 6 7 7 8 8 8 8 8 7 8 7 7 7 7 6 5 5 5 5 5 5 5 6 7 7 7 7 8 7 7 8 8 8 8 8 8 7 7 7 8 8 8
6 7 7 5 6 5 7 6 5 8 8 8 7 7 7 7 7 7 6 6 6 6 6 5 6 6 6 6 6 7 8 7 8 8 8 8 8 9 8 9 9 9 9 8 8 8 9 9 8
8 6 8 8 8 6 7 7 5 6 8 8 6 5 6 6 6 7 7 6 6 6 6 6 6 6 6 7 7 7 8 8 8 9 10 10 10 10 10 10 10 10 10 10 9 10 11 11 10
9 9 9 10 7 8 9 8 6 8 8 8 8 6 6 6 6 7 7 6 6 6 6 6 6 7 7 7 7 8 8 9 9 10 11 11 11 11 11 11 11 11 11 11 11 12 12 12 11
10 10 11 11 9 10 10 9 9 9 9 9 8 7 6 6 6 7 6 7 7 6 7 8 7 8 8 9 9 9 9 9 10 11 12 12 12 13 13 12 12 13 13 12 12 12 13 13 13
12 12 11 10 9 10 11 10 10 10 9 8 8 8 7 7 8 7 7 8 8 8 8 9 8 9 9 10 11 11 11 12 12 12 13 13 14 14 13 13 13 13 14 14 14 14 14 14 14
13 12 12 11 11 11 10 12 12 12 10 8 9 10 9 10 9 9 9 10 9 9 10 10 10 10 11 11 12 13 13 14 14 14 13 14 15 15 14 14 14 14 14 15 15 15 15 15 15
14 12 11 11 12 12 12 12 12 13 12 9 11 11 10 11 10 10 10 11 11 12 11 12 12 11 11 12 12 13 15 15 15 15 15 15 16 16 16 15 15 15 15 15 15 16 16 16 15
15 14 12 11 12 13 12 11 13 15 15 12 13 14 13 13 12 12 12 12 13 14 13 14 14 13 13 13 14 14 15 16 16 16 16 17 17 18 17 16 16 16 16 16 16 16 16 16 15
16 16 15 15 14 13 13 13 15 16 15 13 14 15 14 14 15 15 14 14 14 15 16 15 15 15 15 15 15 16 16 17 17 17 18 18 18 19 19 18 18 18 18 17 17 17 17 16 16
18 16 16 17 15 15 14 13 15 16 16 15 17 16 15 16 16 16 15 15 15 15 16 16 15 16 16 17 16 16 17 18 19 18 19 19 19 20 20 19 19 19 18 19 19 19 18 18 18
20 19 18 18 17 16 15 14 17 18 18 17 18 17 16 16 16 17 17 16 15 15 16 16 16 16 16 17 18 18 18 19 20 20 20 20 21 21 21 21 21 20 20 20 20 20 20 20 19
19 19 18 18 18 17 18 19 19 19 18 18 18 18 17 17 17 17 17 17 17 18 18 17 17 18 18 19 20 21 21 21 21 21 21 22 22 21 21 22 21 21 21 21 21 21 22 21 20
Wind_Direction
84 78 76 75 68 62 57 56 47 42 49 50 55 61 58 54 74 115 111 100 98 111 127 142 140 143 147 150 138 139 140 148 144 146 143 135 128 111 98 83 100 152 143 118 113 114 108 99 90
85 77 74 66 60 59 61 50 40 42 45 48 54 57 48 47 51 78 92 99 114 123 127 138 141 142 148 149 145 139 139 140 146 150 141 136 122 97 74 78 94 124 125 104 89 91 120 115 124
87 80 72 58 51 51 55 43 38 43 43 43 45 52 41 42 46 50 60 91 109 134 124 126 137 140 146 151 148 141 138 138 136 131 121 123 108 91 61 55 77 89 115 98 81 67 121 146 142
90 77 66 57 50 58 55 38 29 34 38 39 45 47 47 49 59 44 48 68 92 119 125 120 131 136 138 135 148 153 142 131 120 115 113 121 115 100 26 33 43 46 57 37 50 49 63 141 240
90 76 64 44 41 55 53 40 25 26 31 35 42 48 49 58 59 49 43 40 77 107 123 128 138 139 139 128 130 148 144 142 124 126 129 95 54 15 36 57 39 55 40 33 47 47 56 29 279
87 78 63 44 35 40 39 37 22 26 26 31 35 50 48 59 57 52 48 44 67 81 99 119 131 137 134 129 127 132 135 138 122 113 97 53 33 11 22 32 31 28 17 12 12 26 37 348 336
85 78 69 45 38 30 31 29 29 25 29 32 34 45 49 56 53 50 48 52 61 76 93 112 120 126 128 133 133 123 107 112 89 77 72 61 40 23 20 19 2 349 348 9 21 18 10 354 353
90 85 75 54 31 33 34 33 34 30 32 35 37 40 48 53 49 52 56 56 61 70 84 106 115 114 111 120 120 111 95 88 92 70 58 45 29 23 20 12 357 1 19 30 17 9 13 19 12
88 76 59 43 25 32 35 34 34 32 30 35 44 46 47 51 51 53 60 59 59 63 70 89 103 108 109 113 107 98 84 76 68 48 35 30 23 22 25 22 8 359 17 20 10 1 10 9 10
81 88 63 41 31 30 35 39 36 34 29 40 49 42 42 46 48 52 64 64 62 61 59 53 72 98 107 109 103 89 73 64 52 34 20 16 11 15 20 15 14 10 4 8 8 360 355 356 350
79 86 79 49 33 24 29 37 33 29 29 34 42 43 42 44 48 52 62 61 60 60 54 45 63 91 100 94 86 78 57 45 42 28 15 6 0 7 12 10 15 15 15 17 9 357 360 356 339
102 89 76 55 38 37 32 37 26 34 31 34 36 39 38 40 41 42 42 52 42 46 51 54 49 58 77 73 71 64 48 36 29 16 8 0 356 359 1 12 16 19 11 359 346 340 346 341 338
108 86 75 46 27 34 28 29 18 20 27 31 34 36 32 37 46 46 37 28 16 17 26 31 51 48 54 54 39 27 20 14 10 3 359 357 354 350 353 356 2 0 356 343 335 329 327 332 333
136 106 73 90 59 30 16 17 10 10 12 18 27 28 27 25 32 35 30 27 22 14 12 13 21 17 30 23 16 15 7 357 353 352 352 348 345 343 347 350 349 350 348 335 325 319 320 325 323
163 137 357 153 22 18 358 345 357 356 0 7 13 14 17 19 25 25 26 29 29 23 19 14 26 17 12 5 11 5 359 351 348 345 342 339 336 335 336 339 337 339 336 337 332 324 314 311 314
237 238 276 308 327 356 341 341 350 348 355 1 6 13 17 20 21 21 21 23 25 25 22 24 23 14 358 355 3 8 355 347 346 346 344 339 335 335 332 332 328 328 325 328 333 325 319 318 314
248 233 252 291 303 319 307 320 333 343 347 355 360 8 6 12 16 17 16 15 17 19 21 19 15 7 2 2 355 352 350 345 346 347 343 341 340 338 337 334 330 325 323 325 327 326 325 322 317
237 250 244 253 284 290 282 297 323 325 338 347 354 1 2 6 8 7 6 8 12 14 13 8 5 2 4 1 355 350 349 345 347 345 341 338 338 335 336 334 331 328 327 324 321 320 321 319 320
237 238 250 268 271 274 285 298 313 317 325 332 344 350 356 1 4 1 359 4 8 5 5 3 0 357 356 355 350 348 348 347 345 341 338 335 333 333 332 327 323 323 322 322 321 320 318 315 312
244 241 258 257 268 271 282 293 297 300 299 307 323 334 337 343 354 354 351 355 2 360 358 355 349 345 342 341 340 342 342 339 333 332 331 329 327 327 327 324 323 321 320 320 317 315 312 310 306
250 255 263 265 267 281 280 283 295 277 284 298 311 318 324 328 336 340 339 340 346 349 350 346 341 337 335 334 332 332 331 329 326 326 327 325 323 323 319 319 320 320 319 316 314 315 314 308 305
243 253 260 263 264 264 263 275 281 279 284 296 305 303 314 316 319 323 325 328 326 328 330 331 329 328 328 324 320 319 319 317 318 318 319 319 320 318 314 314 315 317 315 311 310 311 310 308 305
238 244 249 253 257 258 263 270 275 281 273 285 297 296 299 305 308 312 313 312 315 316 315 317 320 321 323 320 315 314 313 312 314 315 315 317 317 316 315 314 313 314 314 309 306 304 304 304 304
238 245 250 251 256 264 271 275 276 276 277 283 290 292 295 296 300 305 304 305 304 308 308 309 310 312 315 315 311 311 312 313 316 315 314 316 318 318 321 317 313 311 311 310 306 303 304 305 305
238 246 254 262 264 266 265 268 273 279 277 273 279 281 282 288 294 296 295 296 297 298 301 302 302 304 307 310 308 307 309 308 311 313 314 315 317 318 318 316 314 312 311 310 306 304 307 308 307
235 237 248 260 268 269 265 258 272 280 270 266 266 270 274 276 278 285 290 292 292 292 298 300 297 298 300 304 307 306 309 309 309 311 313 313 314 315 314 313 311 310 309 308 307 307 305 305 303
232 231 239 249 254 257 256 256 272 280 279 277 273 272 273 275 278 285 284 286 289 291 296 300 294 294 297 301 304 306 308 311 310 309 309 311 311 310 308 308 306 305 305 305 304 303 302 301 301
236 237 240 244 249 257 255 253 266 273 276 276 275 271 274 275 277 280 279 283 285 289 294 296 295 296 296 297 299 302 306 309 310 310 310 310 311 310 308 305 303 302 300 300 300 300 300 299 299
239 235 236 244 245 250 259 259 258 264 270 273 275 273 274 280 278 278 276 286 284 290 292 294 295 296 296 296 298 301 303 305 307 307 308 310 309 310 309 307 303 301 300 299 297 296 297 298 298
242 240 240 248 251 252 258 264 265 265 269 269 271 277 282 281 278 277 279 285 288 291 292 292 293 294 295 295 296 298 300 303 305 304 305 307 308 308 308 308 306 302 300 297 294 293 295 294 294
Height
5887 5887 5887 5887 5887 5887 5886 5886 5885 5884 5884 5883 5882 5881 5880 5881 5881 5882 5879 5877 5878 5878 5878 5879 5879 5880 5880 5881 5882 5882 5883 5884 5884 5885 5885 5885 5885 5885 5884 5882 5880 5883 5885 5886 5887 5887 5888 5888 5888
5890 5890 5889 5888 5888 5888 5888 5888 5887 5886 5885 5884 5883 5882 5882 5881 5881 5880 5879 5878 5879 5878 5879 5879 5880 5880 5881 5882 5883 5883 5884 5885 5885 5885 5886 5886 5886 5886 5885 5883 5883 5884 5886 5887 5887 5888 5888 5888 5888
5892 5891 5891 5890 5890 5890 5890 5890 5889 5888 5887 5885 5885 5884 5883 5882 5881 5881 5880 5880 5879 5879 5879 5879 5880 5881 5881 5882 5883 5884 5885 5886 5886 5886 5887 5887 5887 5887 5886 5886 5886 5886 5887 5887 5888 5888 5888 5888 5888
5894 5893 5893 5894 5893 5893 5892 5891 5890 5889 5888 5887 5886 5885 5884 5883 5883 5882 5881 5880 5879 5879 5879 5879 5880 5881 5882 5883 5884 5885 5886 5886 5887 5887 5887 5888 5888 5888 5887 5887 5887 5887 5887 5888 5888 5888 5888 5888 5888
5894 5894 5895 5895 5895 5894 5894 5893 5892 5891 5890 5888 5888 5887 5885 5885 5884 5883 5882 5881 5879 5878 5878 5878 5880 5881 5883 5884 5885 5886 5887 5887 5888 5888 5888 5888 5888 5888 5888 5888 5888 5888 5888 5888 5888 5888 5888 5888 5888
5894 5896 5897 5899 5898 5897 5896 5895 5894 5893 5891 5890 5888 5887 5886 5886 5885 5884 5883 5882 5880 5878 5877 5878 5880 5882 5883 5885 5886 5887 5888 5888 5888 5889 5889 5889 5888 5888 5888 5888 5888 5888 5888 5888 5888 5888 5888 5888 5888
5895 5898 5900 5901 5901 5899 5898 5897 5896 5894 5893 5892 5890 5889 5887 5887 5887 5886 5885 5883 5881 5879 5879 5879 5881 5883 5885 5886 5887 5888 5888 5889 5889 5889 5889 5889 5889 5889 5888 5888 5888 5888 5888 5888 5888 5888 5889 5888 5888
5898 5901 5902 5903 5902 5901 5900 5899 5897 5896 5895 5894 5893 5892 5890 5889 5888 5888 5887 5886 5884 5883 5882 5883 5884 5885 5886 5887 5888 5889 5889 5890 5890 5890 5890 5890 5889 5889 5888 5888 5887 5887 5887 5888 5888 5888 5889 5889 5889
5901 5904 5905 5905 5904 5903 5902 5900 5899 5898 5897 5896 5895 5894 5892 5891 5890 5889 5888 5888 5887 5886 5886 5886 5887 5887 5888 5889 5889 5890 5890 5890 5890 5891 5891 5890 5890 5889 5888 5888 5887 5887 5887 5888 5888 5888 5889 5889 5889
5903 5906 5907 5907 5906 5905 5903 5902 5901 5900 5898 5897 5897 5896 5894 5893 5892 5891 5891 5890 5889 5889 5889 5889 5889 5889 5890 5891 5891 5891 5891 5891 5891 5891 5891 5891 5890 5889 5889 5888 5887 5886 5886 5887 5888 5888 5889 5889 5889
5907 5908 5908 5908 5907 5906 5905 5904 5903 5902 5901 5899 5899 5898 5897 5896 5895 5894 5893 5892 5891 5891 5891 5891 5891 5891 5892 5892 5892 5893 5893 5893 5892 5892 5892 5891 5891 5890 5889 5888 5887 5886 5886 5887 5888 5888 5889 5889 5889
5909 5910 5909 5909 5908 5907 5906 5905 5904 5904 5903 5901 5900 5899 5899 5898 5896 5895 5894 5893 5894 5893 5893 5893 5893 5893 5893 5893 5894 5894 5894 5893 5893 5893 5892 5892 5891 5890 5889 5889 5888 5887 5887 5888 5888 5889 5888 5889 5888
5910 5910 5910 5910 5909 5908 5907 5907 5906 5905 5904 5903 5902 5901 5900 5899 5897 5897 5896 5896 5896 5895 5895 5895 5895 5894 5894 5894 5895 5895 5895 5894 5894 5894 5893 5892 5892 5891 5890 5889 5889 5889 5888 5889 5889 5889 5889 5888 5888
5910 5910 5911 5911 5910 5909 5909 5908 5908 5907 5906 5905 5904 5903 5901 5900 5899 5899 5898 5898 5897 5897 5897 5896 5895 5896 5896 5896 5896 5896 5895 5895 5895 5894 5893 5893 5892 5891 5890 5890 5890 5889 5889 5889 5889 5889 5889 5888 5888
5909 5911 5911 5910 5911 5911 5910 5909 5908 5907 5907 5906 5905 5904 5903 5902 5901 5901 5900 5899 5899 5898 5898 5897 5896 5897 5897 5897 5896 5896 5896 5895 5895 5894 5894 5893 5892 5891 5891 5890 5890 5890 5889 5889 5889 5889 5888 5888 5888
5908 5909 5911 5911 5911 5911 5912 5910 5909 5908 5907 5907 5906 5905 5904 5903 5903 5902 5901 5901 5900 5900 5899 5898 5898 5898 5898 5897 5897 5897 5896 5896 5895 5895 5894 5893 5892 5892 5891 5890 5890 5889 5889 5889 5888 5888 5888 5887 5887
5910 5910 5912 5912 5912 5912 5912 5911 5910 5909 5907 5907 5907 5906 5905 5904 5903 5903 5902 5902 5901 5901 5900 5900 5899 5899 5898 5898 5898 5897 5897 5896 5896 5895 5894 5893 5893 5892 5891 5890 5890 5889 5889 5888 5888 5888 5887 5886 5886
5910 5912 5912 5912 5912 5911 5911 5911 5910 5909 5908 5907 5907 5906 5905 5905 5904 5903 5903 5902 5902 5902 5901 5901 5900 5900 5899 5899 5898 5898 5897 5896 5896 5895 5894 5893 5893 5892 5891 5890 5889 5889 5888 5888 5887 5887 5886 5885 5885
5910 5911 5911 5912 5912 5912 5911 5911 5910 5909 5908 5907 5907 5906 5905 5905 5904 5904 5903 5903 5902 5902 5901 5901 5901 5900 5900 5899 5898 5898 5897 5897 5896 5895 5894 5893 5892 5892 5891 5890 5889 5888 5887 5887 5886 5885 5885 5884 5883
5909 5911 5911 5911 5911 5911 5910 5910 5909 5910 5908 5907 5906 5906 5905 5905 5905 5904 5904 5903 5903 5902 5902 5901 5901 5900 5900 5899 5898 5898 5897 5897 5896 5895 5894 5893 5892 5891 5890 5889 5888 5887 5886 5885 5885 5884 5883 5882 5882
5909 5910 5910 5909 5909 5910 5910 5909 5909 5909 5908 5906 5905 5904 5905 5905 5904 5904 5904 5904 5903 5903 5902 5902 5901 5900 5900 5899 5898 5898 5897 5896 5895 5894 5893 5892 5891 5890 5889 5888 5887 5886 5885 5884 5883 5882 5881 5880 5879
5908 5909 5908 5908 5908 5909 5909 5908 5908 5907 5907 5905 5905 5904 5903 5904 5904 5904 5903 5903 5903 5902 5902 5901 5901 5900 5899 5898 5897 5897 5896 5896 5895 5894 5893 5891 5890 5889 5888 5886 5885 5884 5883 5882 5881 5880 5879 5878 5877
5906 5907 5907 5907 5907 5907 5907 5907 5906 5905 5903 5903 5903 5903 5902 5903 5903 5903 5902 5902 5902 5902 5901 5901 5900 5899 5898 5897 5896 5896 5895 5894 5893 5892 5891 5890 5889 5888 5886 5885 5883 5882 5881 5880 5879 5878 5877 5876 5875
5903 5905 5904 5904 5905 5906 5906 5906 5905 5903 5902 5903 5902 5902 5902 5901 5901 5901 5901 5900 5900 5900 5900 5899 5899 5898 5897 5896 5895 5894 5893 5892 5891 5890 5890 5888 5887 5885 5884 5883 5881 5880 5879 5878 5876 5875 5874 5873 5872
5901 5903 5903 5903 5904 5904 5904 5904 5904 5901 5901 5901 5901 5900 5901 5900 5900 5900 5900 5899 5899 5898 5898 5897 5897 5896 5895 5894 5893 5892 5891 5890 5889 5888 5887 5886 5885 5883 5882 5880 5879 5877 5876 5875 5874 5872 5871 5870 5869
5898 5900 5902 5903 5903 5903 5902 5901 5901 5900 5899 5899 5899 5899 5899 5899 5898 5898 5898 5898 5897 5896 5895 5895 5894 5894 5893 5892 5891 5890 5889 5888 5887 5886 5885 5884 5882 5881 5879 5877 5876 5875 5873 5872 5871 5869 5868 5867 5866
5895 5897 5900 5900 5899 5899 5900 5900 5898 5897 5896 5896 5896 5895 5895 5896 5896 5895 5895 5895 5894 5893 5893 5892 5891 5891 5890 5890 5889 5888 5887 5885 5884 5883 5882 5881 5879 5878 5876 5875 5873 5871 5870 5868 5867 5866 5865 5864 5862
5892 5894 5896 5896 5896 5896 5897 5897 5896 5895 5895 5894 5893 5893 5893 5893 5893 5892 5891 5892 5891 5891 5890 5889 5888 5888 5887 5887 5886 5885 5884 5883 5881 5880 5879 5878 5876 5874 5872 5870 5869 5867 5866 5864 5863 5862 5861 5860 5859
5888 5890 5890 5891 5892 5893 5893 5895 5892 5892 5891 5891 5890 5888 5890 5890 5890 5889 5886 5887 5887 5886 5886 5886 5885 5885 5884 5883 5882 5881 5880 5879 5878 5877 5875 5874 5872 5870 5869 5867 5865 5863 5862 5860 5859 5857 5856 5855 5854
5883 5885 5887 5888 5888 5889 5889 5892 5888 5887 5888 5887 5886 5884 5886 5887 5886 5885 5884 5883 5883 5883 5883 5882 5882 5881 5880 5879 5879 5877 5876 5875 5874 5872 5871 5870 5868 5867 5865 5863 5861 5859 5857 5856 5854 5852 5851 5850 5849